{"data":{"norad_id":53591,"epoch":"2026-09-20T03:18:04.917888Z","epoch_age_seconds":110002,"freshness":"FRESH","line1":"1 53591U 22104D   26263.13755692  .00004009  00000+0  12577-3 0  9996","line2":"2 53591  53.1591  77.6607 0000852  87.3036 272.8064 15.35401381225508","mean_motion":15.35401381,"eccentricity":8.52e-5,"inclination_deg":53.1591,"raan_deg":77.6607,"arg_perigee_deg":87.3036,"mean_anomaly_deg":272.8064,"bstar":0.00012577,"rev_number":22550,"period_min":93.78655104909,"perigee_km":459.14595643148,"apogee_km":460.31112871993,"semimajor_km":6837.8655425757,"source":"CELESTRAK","updated_at":"2026-09-21T09:00:32.935067Z"}}